Weather History for Missoula, MT

Change the Weather History Date:

Friday, February 8, 2013

  Actual Average Record
Temperature  
Mean Temperature 34 °F 28 °F  
Max Temperature 40 °F 37 °F 57 °F (1898)
Min Temperature 27 °F 20 °F -25 °F (1936)
Degree Days  
Heating Degree Days 31 36  
Month to date heating degree days 249 295  
Since 1 July heating degree days 4356 4684  
Cooling Degree Days 0 0  
Month to date cooling degree days 0 0  
Year to date cooling degree days 0 0  
Moisture  
Dew Point 27 °F    
Average Humidity 85    
Maximum Humidity 100    
Minimum Humidity 69    
Precipitation  
Precipitation T in 0.03 in 0.28 in (1899)
Month to date precipitation 0.05 0.20  
Year to date precipitation 1.20 1.05  
Snow  
Snow T in - - ()
Month to date snowfall 0.1  
Year to date snowfall 11.5  
Since 1 July snowfall 32.6  
Snow Depth T in    
Sea Level Pressure  
Sea Level Pressure 30.04 in    
Wind  
Wind Speed 4 mph (NE)    
Max Wind Speed 12 mph    
Max Gust Speed 15 mph    
Visibility 10 miles    
Events      
T = Trace of Precipitation, MM = Missing Value Source: NWS Daily Summary

Daily Weather History Graph

Daily Weather History Graph

Search for Another Location

Airport:

Trip Planner

Search our weather history database for the weather conditions in past years. The results will help you decide how hot, cold, wet, or windy it might be!

Date:

Astronomy

Feb. 08, 2013 Rise Set
Actual Time 7:51 AM MST 5:50 PM MST
Civil Twilight 7:19 AM MST 6:22 PM MST
Nautical Twilight 6:43 AM MST 6:58 PM MST
Astronomical Twilight 6:07 AM MST 7:33 PM MST
Moon 6:25 AM MST (2/8) 4:27 PM MST (2/8)
Length of Visible Light 11h 03m
Length of Day
9h 59m
Waning Crescent, 3% of the Moon is Illuminated
Feb 8
Waning Crescent
Feb 10
New
Feb 17
First Quarter
Feb 25
Full
Mar 4
Last Quarter

Hourly Weather History & Observations

Time (MST) Temp. Windchill Dew Point Humidity Pressure Visibility Wind Dir Wind Speed Gust Speed Precip Events Conditions
12:53 AM 30.0 °F 25.2 °F 27.0 °F 88% 30.04 in 9.0 mi SE 4.6 mph - 0.00 in   Overcast
1:53 AM 28.9 °F - 26.1 °F 89% 30.04 in 10.0 mi Calm Calm - N/A   Mostly Cloudy
2:53 AM 30.0 °F - 26.1 °F 85% 30.06 in 10.0 mi Calm Calm - N/A   Overcast
3:00 AM 28.4 °F - 26.6 °F 93% 29.98 in 10.0 mi Calm Calm - N/A   Overcast
3:04 AM 28.4 °F - 26.6 °F 93% 29.98 in 10.0 mi Calm Calm - N/A   Overcast
3:53 AM 30.0 °F 25.2 °F 27.0 °F 88% 30.06 in 10.0 mi SSE 4.6 mph - N/A   Overcast
4:17 AM 30.2 °F 26.7 °F 28.4 °F 93% 29.98 in 9.0 mi South 3.5 mph - N/A   Overcast
4:51 AM 30.2 °F - 28.4 °F 93% 29.99 in 9.0 mi Calm Calm - N/A   Overcast
4:53 AM 30.2 °F - 28.4 °F 93% 29.99 in 9.0 mi Calm Calm - N/A   Overcast
5:53 AM 28.9 °F 23.9 °F 28.0 °F 96% 30.07 in 9.0 mi East 4.6 mph - N/A   Mostly Cloudy
6:05 AM 28.4 °F 24.6 °F 26.6 °F 93% 29.99 in 9.0 mi NE 3.5 mph - N/A   Scattered Clouds
6:53 AM 28.0 °F - 26.1 °F 92% 30.07 in 10.0 mi Calm Calm - N/A   Partly Cloudy
7:09 AM 28.4 °F 24.6 °F 26.6 °F 93% 29.99 in 10.0 mi South 3.5 mph - N/A   Mostly Cloudy
7:44 AM 28.4 °F - 26.6 °F 93% 30.00 in 8.0 mi Calm Calm - N/A   Overcast
7:53 AM 28.9 °F - 27.0 °F 92% 30.09 in 9.0 mi Calm Calm - N/A   Overcast
8:29 AM 30.2 °F - 26.6 °F 86% 30.01 in 9.0 mi Calm Calm - N/A   Overcast
8:53 AM 30.0 °F - 27.0 °F 88% 30.11 in 10.0 mi Calm Calm - N/A   Overcast
9:29 AM 30.2 °F 26.7 °F 26.6 °F 86% 30.02 in 10.0 mi SE 3.5 mph - N/A   Overcast
9:46 AM 30.2 °F 25.4 °F 26.6 °F 86% 30.02 in 10.0 mi ESE 4.6 mph - N/A   Overcast
9:53 AM 30.9 °F 26.2 °F 27.0 °F 85% 30.12 in 10.0 mi ESE 4.6 mph - N/A   Overcast
10:53 AM 33.1 °F 28.7 °F 28.9 °F 85% 30.11 in 10.0 mi SSE 4.6 mph - N/A   Overcast
11:53 AM 34.0 °F 29.8 °F 30.0 °F 85% 30.09 in 10.0 mi SW 4.6 mph - N/A   Mostly Cloudy
12:53 PM 37.9 °F 32.1 °F 30.9 °F 76% 30.06 in 10.0 mi WNW 8.1 mph - N/A   Overcast
1:53 PM 37.9 °F 32.7 °F 28.9 °F 70% 30.04 in 10.0 mi North 6.9 mph - N/A   Overcast
2:53 PM 37.9 °F 32.1 °F 28.0 °F 68% 30.04 in 10.0 mi NNW 8.1 mph - N/A   Overcast
3:53 PM 37.9 °F 32.7 °F 28.9 °F 70% 30.04 in 10.0 mi North 6.9 mph - N/A   Overcast
4:53 PM 37.9 °F 32.7 °F 28.0 °F 68% 30.03 in 10.0 mi North 6.9 mph - N/A   Overcast
5:53 PM 35.1 °F 31.0 °F 30.0 °F 82% 30.04 in 10.0 mi WNW 4.6 mph - N/A   Overcast
6:53 PM 36.0 °F - 28.0 °F 73% 30.05 in 10.0 mi Calm Calm - N/A   Overcast
7:53 PM 35.1 °F - 28.9 °F 78% 30.04 in 10.0 mi Calm Calm - N/A   Overcast
8:53 PM 34.0 °F - 28.0 °F 79% 30.05 in 10.0 mi Calm Calm - N/A   Overcast
9:53 PM 35.1 °F 30.1 °F 26.1 °F 70% 30.06 in 10.0 mi NNW 5.8 mph - N/A   Overcast
10:53 PM 34.0 °F 26.6 °F 25.0 °F 70% 30.06 in 10.0 mi NNW 9.2 mph - N/A   Overcast
11:53 PM 33.1 °F 25.5 °F 23.0 °F 66% 30.06 in 10.0 mi NNW 9.2 mph - N/A   Overcast